SAUDISAT 1C (SO-50) (27607 NORAD) Tracking and Keplerian Element Data

This shows tracking and keplerian element data for the satellite.

Feedback or suggestion? Click here.




ElementValue
Catalog27607
NameSAUDISAT 1C (SO-50)
Epoch Orbit95936
Epoch Day294.87836194
Epoch Year2020
RAAN350.8903
Inclination64.5567
Eccentricity0.0033554
Argument of Perigee132.8629
Mean Anonmoly227.53
Mean Motion14.75669113
Decay Rate2E-07
L11 27607U 02058C 20294.87836194 .00000020 00000-0 23209-4 0 9992
L22 27607 64.5567 350.8903 0033554 132.8629 227.5300 14.75669113959360

Live tracking and technical data element details for SAUDISAT 1C (SO-50) (NORAD 27607). SAUDISAT 1C (SO-50) can be tracked NOW for your location showing map with azimuth and elevation plus other details from your city location.

Track the satellite on the map from your city or location and see movement details for azimuth, elevation, latitude, longitude, range, height, and movement on the map or in text.







IsCatalogInMostPopularTable: catalog: 27607, numindb: 403
Update: records affected: 1



GetName: 27607 SAUDISAT 1C (SO-50)

Hit Count: updated at: Thu, 22 Oct 2020 03:29:23 GMT